sat.trackr.live / text

‹ back to catalog

STARLINK-4455

NORAD 53500 · 2022-099AM

PAYLOAD ACTIVE UNKNOWN

§ Identity

Operator
Country
US
Launch date
2022-08-12
Launch site
AFWTR
Launch vehicle
Mass (kg)
RCS (m²)

Purposes: comms

External: N2YO · Heavens-Above · Gunter

§ Orbital elements

Epoch: 2026-09-02T15:02:34.484928Z

Period
87.71 min
Inclination
97.5770°
Eccentricity
0.0010362
Mean motion
16.41841551 rev/d
Perigee alt
154.1 km
Apogee alt
167.7 km
Semi-major
6,539.0 km
B*
3.4831e-4
RAAN
19.7496°
Arg perigee
278.4959°
Mean anomaly
81.5166°
Rev number
22,357

§ Raw data

STARLINK-44551 53500U 22099AM  26245.62678802  .06859854  26598-5  34831-3 0  99952 53500  97.5770  19.7496 0010362 278.4959  81.5166 16.41841551223574

JSON: /api/v1/satellites/53500 · /tle

For live sub-satellite position, see the globe view (requires WebGL).

§ Visibility from observer

Set your observer location to see the next 7 days of passes ≥ 10°. The values pass through the URL so the page stays shareable.

No JS? Fill the form by hand. The geolocation button needs JavaScript.